This is the latest recevied weather packets stored in our database for station/object IT9KWW-13. If no packets are shown the sender has not sent any weather packets the latest 1 day(s).
| Time | Temp. | Humidity | Pressure | Rain* | Wind** | Luminosity | Snow |
|---|---|---|---|---|---|---|---|
| 1777999853 | 18.89° C | 81% | 1012.9 hPa | 0 mm | 3.13 m/s, 180° | - | - |
| 1777999665 | 18.89° C | 81% | 1012.9 hPa | 0 mm | 4.02 m/s, 202° | - | - |
| 1777999533 | 18.89° C | 80% | 1012.9 hPa | 0 mm | 4.02 m/s, 225° | - | - |
| 1777999413 | 18.89° C | 79% | 1012.9 hPa | 0 mm | 4.02 m/s, 202° | - | - |
| 1777999293 | 18.89° C | 80% | 1012.9 hPa | 0 mm | 4.02 m/s, 180° | - | - |
| 1777999161 | 19.44° C | 79% | 1012.9 hPa | 0 mm | 3.13 m/s, 202° | - | - |
| 1777999041 | 19.44° C | 79% | 1012.9 hPa | 0 mm | 2.68 m/s, 180° | - | - |
| 1777998921 | 19.44° C | 79% | 1012.9 hPa | 0 mm | 4.92 m/s, 202° | - | - |
| 1777998790 | 19.44° C | 79% | 1012.9 hPa | 0 mm | 3.58 m/s, 202° | - | - |
| 1777998669 | 19.44° C | 78% | 1012.9 hPa | 0 mm | 4.47 m/s, 158° | - | - |
| 1777998549 | 19.44° C | 78% | 1012.9 hPa | 0 mm | 3.13 m/s, 158° | - | - |
| 1777998418 | 19.44° C | 78% | 1012.9 hPa | 0 mm | 4.02 m/s, 202° | - | - |
| 1777998297 | 19.44° C | 78% | 1012.9 hPa | 0 mm | 4.02 m/s, 202° | - | - |
| 1777998177 | 19.44° C | 77% | 1012.9 hPa | 0 mm | 4.47 m/s, 180° | - | - |
| 1777998046 | 19.44° C | 77% | 1012.9 hPa | 0 mm | 4.92 m/s, 158° | - | - |
| 1777997925 | 19.44° C | 77% | 1012.9 hPa | 0 mm | 4.02 m/s, 225° | - | - |
| 1777997805 | 19.44° C | 78% | 1012.9 hPa | 0 mm | 3.13 m/s, 202° | - | - |
| 1777997673 | 19.44° C | 77% | 1012.9 hPa | 0 mm | 4.02 m/s, 202° | - | - |
| 1777997553 | 19.44° C | 77% | 1012.9 hPa | 0 mm | 4.02 m/s, 180° | - | - |
| 1777997433 | 19.44° C | 77% | 1012.9 hPa | 0 mm | 3.58 m/s, 248° | - | - |
| 1777997301 | 19.44° C | 76% | 1012.9 hPa | 0 mm | 3.13 m/s, 202° | - | - |
| 1777997181 | 19.44° C | 76% | 1012.9 hPa | 0 mm | 3.58 m/s, 202° | - | - |
| 1777997061 | 19.44° C | 76% | 1012.9 hPa | 0 mm | 4.47 m/s, 202° | - | - |
| 1777996929 | 19.44° C | 77% | 1012.9 hPa | 0 mm | 4.47 m/s, 202° | - | - |
| 1777996809 | 19.44° C | 77% | 1012.9 hPa | 0 mm | 4.02 m/s, 180° | - | - |
* Rain latest hour (hover to see other rain measurements)
** Current wind speed in m/s (hover to see current wind gust speed)